www.pogodaiklimat.ru

Погода и климат >> Архив погоды >> Великобритания >> Кросби


ПОГОДА в Кросби

  • Прогноз погоды в Кросби
  • Монитор погоды в Кросби

АРХИВ ПОГОДЫ в Кросби

Время (UTC), дата Ветер
(напр.,м/с)
 
Видим.   Явления Облачность Т
(С)
Тd
(С)
f
(%)
Тe
(С)
Тes
(С)
Комфортность P
(гПа)
Po
(гПа)
Тmin
(С)
Tmax
(С)
R
(мм)
R24
(мм)
S
(см)
01 10.09 СВ 3 50 км н/о +12.0 +11.1 94 +10 +10 1015.8 1014.8
02 10.09 С 4 45 км н/о +13.1 +12.2 94 +11 +11 1016.1 1015.0
03 10.09 С 5 45 км н/о +12.9 +11.7 92 +11 +11 1016.6 1015.5
04 10.09 С 6 45 км н/о +13.5 +11.6 88 +11 +11 1016.8 1015.7
05 10.09 С 5 45 км н/о +13.3 +10.9 85 +11 +11 1017.3 1016.2
06 10.09 С 5 35 км н/о +12.9 +10.7 86 +11 +11 1017.8 1016.7 +11.6
07 10.09 СЗ 8 24 км н/о +13.7 +10.7 82 +11 +11 1018.5 1017.4
08 10.09 СЗ 7 19 км н/о +14.2 +10.7 79 +12 +12 1019.4 1018.3
09 10.09 СЗ 8 12 км н/о +14.9 +10.3 74 +13 +13 1020.0 1018.9
10 10.09 СЗ 6 19 км н/о +14.8 +10.5 75 +13 +13 1020.0 1018.9
11 10.09 СЗ 6 19 км н/о +15.1 +10.0 72 +13 +13 1020.0 1019.0
12 10.09 СЗ 6 35 км н/о +15.4 +10.1 71 +14 +14 1020.1 1019.0
13 10.09 З 6 21 км н/о +16.6 +10.5 67 +16 +16 1020.2 1019.1
14 10.09 З 5 35 км н/о +15.7 +9.9 68 +15 +15 1020.4 1019.3
15 10.09 З 5 35 км н/о +16.3 +9.6 65 +15 +15 1019.7 1018.6
16 10.09 З 5 40 км н/о +15.2 +9.8 70 +14 +14 1019.3 1018.2
17 10.09 З 5 50 км н/о +15.2 +8.2 63 +14 +14 1019.2 1018.1
18 10.09 З 7 45 км н/о +15.1 +7.1 59 +13 +13 1018.7 1017.6 +16.9
19 10.09 ЮЗ 8 20 км н/о +14.5 +9.1 70 +12 +12 1018.0 1017.0
20 10.09 З 8 14 км слаб. морось с дождем н/о +14.4 +9.4 72 +12 +12 1018.2 1017.1
21 10.09 ЮЗ 7 11 км в посл. час дождь н/о +14.1 +9.9 76 +12 +12 1017.3 1016.3
22 10.09 ЮЗ 7 17 км в посл. час дождь н/о +14.2 +10.1 76 +12 +12 1016.7 1015.6
23 10.09 ЮЗ 9 21 км н/о +15.0 +11.4 79 +13 +13 1015.8 1014.7
00 11.09 ЮЗ 10 45 км в посл. час дождь н/о +15.6 +12.4 81 +13 +13 1014.6 1013.6 0.0
01 11.09 ЮЗ 11
{14}
9000 м слаб. ливневой дождь н/о +16.0 +13.2 83 +14 +14 1013.9 1012.9
02 11.09 ЮЗ 9
{14}
45 км в посл. час дождь н/о +16.5 +13.8 84 +15 +15 1013.2 1012.1
03 11.09 ЮЗ 9
{14}
40 км н/о +17.0 +14.2 84 +16 +16 1012.9 1011.8
04 11.09 З 10
{13}
4800 м ливневой дождь н/о +16.7 +14.8 89 +15 +15 1012.2 1011.1
05 11.09 ЮЗ 9 4400 м слаб. морось с дождем н/о +16.6 +15.1 91 +15 +15 1012.2 1011.1
06 11.09 ЮЗ 8 5000 м в посл. час дождь н/о +16.3 +15.2 93 +15 +15 1012.3 1011.3 +14.0 2
07 11.09 ЮЗ 8 4400 м в посл. час дождь н/о +16.1 +15.4 96 +14 +14 1012.9 1011.8
08 11.09 З 12
{16}
7000 м дым н/о +17.0 +15.1 89 +15 +15 1013.2 1012.1
09 11.09 З 12
{15}
7000 м в посл. час дождь н/о +16.5 +15.0 91 +14 +14 1014.0 1013.0
10 11.09 СЗ 11
{15}
7000 м дым н/о +16.3 +13.1 81 +14 +14 1015.0 1013.9
11 11.09 СЗ 11
{15}
9000 м дым н/о +16.5 +12.4 77 +15 +15 1016.0 1014.9
12 11.09 З 10
{14}
11 км н/о +17.1 +12.8 76 +16 +16 1016.9 1015.8 3
13 11.09 З 10
{14}
13 км н/о +17.4 +12.4 72 +16 +16 1017.6 1016.6
14 11.09 З 9 19 км н/о +18.1 +11.8 67 +17 +17 1018.4 1017.3
15 11.09 З 8 20 км н/о +18.4 +12.6 69 +18 +18 1018.6 1017.5
16 11.09 З 8 20 км н/о +17.6 +12.5 72 +17 +17 1019.0 1017.9
17 11.09 З 7 27 км н/о +17.8 +11.3 66 +17 +17 1019.4 1018.4
18 11.09 З 7 19 км н/о +17.0 +11.9 72 +16 +16 1020.0 1018.9 +18.6 3
19 11.09 З 6 16 км н/о +16.3 +12.0 76 +15 +15 1020.0 1018.9
20 11.09 З 6 17 км н/о +16.4 +11.9 75 +15 +15 1020.7 1019.7
21 11.09 З 8 13 км н/о +16.3 +12.2 77 +15 +15 1020.8 1019.7
22 11.09 З 6 17 км н/о +16.2 +12.3 78 +15 +15 1021.1 1020.0
23 11.09 ЮЗ 5 18 км н/о +15.8 +12.2 79 +15 +15 1021.5 1020.4
00 12.09 ЮЗ 5 35 км н/о +15.8 +11.6 76 +15 +15 1021.8 1020.7
01 12.09 З 5 35 км н/о +16.0 +12.0 77 +15 +15 1022.3 1021.3
02 12.09 ЮЗ 5 40 км н/о +15.3 +11.7 79 +14 +14 1022.2 1021.1
03 12.09 ЮЗ 5 45 км н/о +14.7 +11.5 81 +13 +13 1022.0 1021.0
04 12.09 Ю 4 40 км н/о +14.4 +11.5 83 +13 +13 1021.9 1020.8
05 12.09 Ю 4 35 км н/о +14.3 +11.7 84 +13 +13 1022.2 1021.1
06 12.09 Ю 4 24 км в посл. час дождь н/о +14.4 +11.9 85 +13 +13 1022.2 1021.1 +14.2 0.0
07 12.09 Ю 3 11 км н/о +14.6 +13.4 93 +14 +14 1022.3 1021.2
08 12.09 Ю 4 24 км в посл. час дождь н/о +15.2 +13.2 88 +14 +14 1022.4 1021.3
09 12.09 Ю 3 18 км н/о +16.9 +14.5 86 +17 +17 1022.4 1021.3
10 12.09 ЮЗ 8 23 км н/о +17.7 +14.8 83 +17 +17 1022.5 1021.4
11 12.09 ЮЗ 10 13 км дым н/о +17.9 +15.1 84 +17 +17 1022.2 1021.1
12 12.09 ЮЗ 10
{13}
25 км н/о +18.8 +15.1 79 +19 +19 1022.0 1020.9 0.0
13 12.09 ЮЗ 13
{16}
23 км н/о +18.5 +13.1 71 +18 +18 1022.4 1021.3
14 12.09 ЮЗ 11
{16}
21 км н/о +18.0 +14.5 80 +17 +17 1022.6 1021.5
15 12.09 З 9
{15}
5000 м дым н/о +17.7 +15.3 86 +17 +17 1022.8 1021.7
16 12.09 ЮЗ 8 7000 м в посл. час дождь н/о +17.3 +15.8 91 +16 +16 1022.9 1021.8
17 12.09 ЮЗ 6 6000 м дым н/о +17.7 +15.8 89 +17 +17 1023.4 1022.3
18 12.09 С 10
{14}
29 км в посл. час дождь н/о +15.4 +14.4 94 +13 +13 1024.7 1023.6 +19.0 1
19 12.09 СЗ 11
{13}
15 км н/о +15.0 +13.2 89 +12 +12 1026.5 1025.4
20 12.09 СЗ 10
{13}
13 км н/о +14.8 +11.6 81 +12 +12 1027.9 1026.8
21 12.09 С 10 10 км н/о +14.4 +10.4 77 +12 +12 1028.7 1027.6
22 12.09 С 9 12 км дым н/о +14.2 +10.1 76 +12 +12 1029.8 1028.7
23 12.09 С 9 13 км н/о +14.1 +9.6 74 +12 +12 1030.3 1029.2
00 13.09 С 9 20 км н/о +13.9 +10.0 77 +11 +11 1030.9 1029.8 0.2
01 13.09 С 8 18 км н/о +13.7 +9.5 76 +11 +11 1031.7 1030.6
02 13.09 С 8 35 км н/о +13.2 +9.5 78 +10 +10 1032.1 1031.0
03 13.09 С 7 27 км н/о +12.5 +9.1 80 +10 +10 1032.6 1031.5
04 13.09 С 6 29 км н/о +12.3 +9.3 82 +10 +10 1032.9 1031.7
05 13.09 С 5 29 км н/о +12.0 +9.2 83 +9 +9 1033.6 1032.5
06 13.09 СЗ 4 28 км н/о +11.7 +9.2 85 +9 +9 1034.2 1033.1 +11.5 0.2
07 13.09 СЗ 6 35 км н/о +12.9 +9.6 80 +11 +11 1035.0 1033.9
08 13.09 СЗ 6 35 км н/о +14.3 +10.4 77 +12 +12 1035.7 1034.6
09 13.09 СЗ 6 29 км н/о +15.2 +10.5 74 +14 +14 1036.2 1035.1
10 13.09 СЗ 5 18 км н/о +15.2 +9.7 70 +14 +14 1036.4 1035.3
11 13.09 СЗ 4 19 км н/о +15.9 +10.7 71 +15 +15 1036.7 1035.6
12 13.09 СЗ 5 15 км н/о +16.3 +10.5 69 +15 +15 1037.2 1036.1
13 13.09 СЗ 4 28 км н/о +16.4 +10.5 68 +16 +16 1037.2 1036.1
14 13.09 СЗ 5 30 км н/о +16.8 +10.8 68 +16 +16 1037.2 1036.1
15 13.09 СЗ 5 35 км н/о +16.1 +9.2 64 +15 +15 1037.3 1036.2
16 13.09 СЗ 4 35 км н/о +15.8 +8.4 61 +15 +15 1036.9 1035.8
17 13.09 СЗ 3 28 км н/о +15.3 +8.7 65 +15 +15 1036.8 1035.7
18 13.09 СЗ 2 30 км н/о +14.5 +8.7 68 +14 +14 1037.0 1035.9 +16.9
19 13.09 С 2 30 км н/о +11.3 +7.5 77 +10 +10 1037.2 1036.0
20 13.09 СВ 2 30 км н/о +11.0 +8.3 83 +10 +10 1037.1 1036.0
21 13.09 В 2 25 км н/о +10.8 +7.8 82 +10 +10 1037.1 1035.9
22 13.09 СВ 2 21 км н/о +8.6 +7.5 93 +7 +7 1037.0 1035.9
23 13.09 ЮВ 2 26 км н/о +10.6 +8.2 85 +9 +9 1036.7 1035.5
00 14.09 Ю 3 20 км н/о +10.3 +8.1 86 +8 +8 1036.3 1035.2
01 14.09 Ю 2 18 км н/о +9.0 +6.8 86 +7 +7 1036.3 1035.2
02 14.09 ЮВ 3 16 км н/о +8.6 +8.0 96 +6 +6 1035.9 1034.8
03 14.09 ЮВ 3 15 км н/о +9.4 +8.3 93 +7 +7 1035.0 1033.8
04 14.09 ЮВ 2 14 км н/о +8.0 +7.0 93 +6 +6 1034.5 1033.4
05 14.09 ЮВ 3 17 км н/о +8.8 +7.6 92 +6 +6 1034.0 1032.8
06 14.09 Ю 5 26 км н/о +10.9 +8.0 82 +8 +8 1033.0 1031.9 +6.0
07 14.09 Ю 4 35 км н/о +11.7 +7.5 75 +10 +10 1033.5 1032.4
08 14.09 Ю 4 29 км н/о +12.7 +8.8 77 +11 +11 1032.9 1031.8
09 14.09 Ю 5 28 км н/о +14.2 +9.8 75 +13 +13 1032.6 1031.5
10 14.09 Ю 4 23 км н/о +16.5 +10.6 68 +16 +16 1032.3 1031.2
11 14.09 ЮЗ 5 30 км н/о +17.5 +9.5 59 +17 +17 1031.8 1030.7
12 14.09 ЮЗ 4 35 км н/о +19.0 +10.3 57 +20 +20 1031.0 1029.9
13 14.09 ЮЗ 4 40 км н/о +18.3 +10.2 59 +18 +18 1030.5 1029.4
14 14.09 СЗ 3 35 км н/о +18.9 +13.2 69 +20 +20 1029.8 1028.7
15 14.09 СЗ 3 30 км н/о +18.6 +11.0 61 +19 +19 1029.0 1027.9
16 14.09 З 2 45 км н/о +18.7 +10.5 59 +20 +20 1028.0 1026.9
17 14.09 ЮЗ 3 45 км н/о +18.0 +11.3 65 +18 +18 1027.0 1025.9
18 14.09 З 9 40 км н/о +17.3 +11.3 68 +16 +16 1026.9 1025.8 +19.4
19 14.09 ЮЗ 7 50 км н/о +16.5 +10.8 69 +15 +15 1026.7 1025.6
20 14.09 ЮЗ 6 50 км н/о +15.7 +10.3 70 +14 +14 1026.4 1025.3
21 14.09 ЮЗ 7 26 км н/о +16.0 +10.6 70 +15 +15 1026.1 1025.0
22 14.09 ЮЗ 6 11 км н/о +15.4 +10.3 72 +14 +14 1025.5 1024.4
23 14.09 ЮЗ 6 17 км н/о +15.9 +11.4 75 +15 +15 1025.1 1024.0
00 15.09 ЮЗ 5 5000 м в посл. час дождь со снегом н/о +15.8 +12.1 79 +15 +15 1024.5 1023.4 5
01 15.09 ЮЗ 7 19 км н/о +15.8 +12.6 81 +14 +14 1024.2 1023.1
02 15.09 ЮЗ 5 23 км н/о +15.8 +12.8 82 +15 +15 1023.7 1022.6
03 15.09 ЮЗ 5 28 км н/о +16.3 +13.3 82 +15 +15 1023.4 1022.3
04 15.09 З 10
{13}
22 км н/о +16.7 +13.5 81 +15 +15 1023.0 1021.9
05 15.09 З 11
{14}
20 км н/о +16.4 +13.8 85 +14 +14 1023.0 1021.9
06 15.09 СЗ 10
{13}
30 км н/о +16.3 +13.9 86 +14 +14 1023.2 1022.1 +15.4
07 15.09 СЗ 10 21 км н/о +16.0 +14.3 90 +14 +14 1023.5 1022.4
08 15.09 С 5 4300 м дымка н/о +13.5 +12.6 94 +12 +12 1024.3 1023.2
09 15.09 С 5 5000 м дым н/о +12.9 +11.9 94 +11 +11 1025.0 1023.9
10 15.09 С 4 17 км н/о +13.8 +11.5 86 +12 +12 1024.8 1023.7
11 15.09 З 4 10 км дым н/о +15.3 +12.0 81 +14 +14 1024.7 1023.6
12 15.09 СЗ 4 13 км н/о +14.8 +11.5 81 +14 +14 1024.9 1023.8 0.2
13 15.09 С 5 16 км н/о +14.8 +11.8 82 +13 +13 1024.5 1023.4
14 15.09 СЗ 4 22 км н/о +14.6 +10.4 76 +14 +14 1024.5 1023.4
15 15.09 СЗ 4 23 км н/о +14.4 +10.3 76 +13 +13 1024.3 1023.2
16 15.09 СВ 3 3400 м дым н/о +12.7 +11.2 91 +11 +11 1023.9 1022.8
17 15.09 СВ 3 5000 м слаб. ливневой дождь н/о +12.2 +11.4 95 +11 +11 1023.7 1022.6
18 15.09 СВ 1 6000 м слаб. морось н/о +12.2 +11.5 95 +12 +12 1023.5 1022.4 +16.3 2
19 15.09 В 1 3100 м в посл. час дождь н/о +12.1 +11.5 96 +12 +12 1023.2 1022.1
20 15.09 СВ 2 2900 м слаб. морось н/о +12.0 +11.5 97 +11 +11 1023.1 1022.0
21 15.09 В 3 3500 м слаб. дождь н/о +11.9 +11.5 97 +10 +10 1023.1 1022.0
22 15.09 В 3 4000 м слаб. морось с дождем н/о +11.7 +11.3 97 +10 +10 1023.2 1022.1
23 15.09 В 2 5000 м слаб. морось с дождем н/о +11.7 +11.3 97 +10 +10 1022.9 1021.8
00 16.09 СВ 3 5000 м в посл. час дождь н/о +11.4 +11.1 98 +9 +9 1022.7 1021.6 5
01 16.09 СВ 3 5000 м в посл. час дождь н/о +11.3 +11.0 98 +9 +9 1022.7 1021.6
02 16.09 В 2 15 км н/о +11.0 +10.7 98 +10 +10 1022.4 1021.3
03 16.09 СВ 1 14 км н/о +11.2 +10.9 98 +11 +11 1022.3 1021.2
04 16.09 СВ 1 17 км н/о +11.3 +11.0 98 +11 +11 1021.8 1020.7
05 16.09 В 1 15 км н/о +11.0 +10.7 98 +11 +11 1021.6 1020.5
06 16.09 В 2 1900 м дымка н/о +10.0 +9.6 97 +9 +9 1021.8 1020.7 +10.0 6
07 16.09 В 2 8000 м в посл. час туман н/о +10.5 +10.3 99 +9 +9 1022.2 1021.1
08 16.09 СВ 3 18 км н/о +12.0 +11.7 98 +10 +10 1023.0 1021.9
09 16.09 СВ 3 23 км н/о +13.1 +11.6 91 +12 +12 1023.3 1022.2
10 16.09 СВ 3 29 км н/о +14.5 +11.2 81 +14 +14 1023.3 1022.3
11 16.09 С 4 50 км н/о +15.8 +9.8 67 +15 +15 1023.6 1022.5
12 16.09 С 4 40 км н/о +15.5 +9.5 67 +15 +15 1024.1 1023.0
13 16.09 С 4 45 км н/о +15.9 +10.2 69 +15 +15 1023.9 1022.8
14 16.09 С 6 29 км н/о +15.6 +9.6 67 +14 +14 1023.9 1022.9
15 16.09 С 6 45 км н/о +16.1 +10.0 67 +15 +15 1023.9 1022.9
16 16.09 С 6 50 км н/о +14.6 +9.0 69 +13 +13 1024.0 1022.9
17 16.09 С 6 45 км н/о +14.6 +9.8 73 +13 +13 1023.9 1022.9
18 16.09 СЗ 6 50 км н/о +13.6 +9.6 77 +11 +11 1024.1 1023.0 +16.3
19 16.09 С 6 45 км н/о +12.7 +9.1 79 +10 +10 1024.5 1023.4
20 16.09 С 5 50 км н/о +12.2 +8.9 80 +10 +10 1024.7 1023.6
21 16.09 С 7 50 км н/о +12.7 +8.6 76 +10 +10 1024.8 1023.7
22 16.09 С 8 30 км н/о +13.1 +8.1 72 +10 +10 1024.9 1023.8
23 16.09 С 8 24 км н/о +13.6 +8.4 71 +11 +11 1024.7 1023.6
00 17.09 С 8 19 км н/о +13.7 +8.9 73 +11 +11 1024.8 1023.7
01 17.09 С 9 21 км н/о +13.9 +9.1 73 +11 +11 1024.8 1023.7

 

Местоположение метеостанции Кросби (Великобритания): широта 53.50 долгота -3.07 высота над уровнем моря 9 м.

В архиве по умолчанию представлена погода в Кросби за последнюю неделю. Архивные данные за месяц целиком и за предыдущие месяцы, начиная с января 2011 года, Вы можете получить, выбрав интересующий диапазон дат из раскрывающегося списка и нажав кнопку "Ввод!".


*Определитесь, кто Вы:
робот инопланетянин человек

Внимание! Время в таблицах - всемирное. Для получения местного времени необходимо прибавить поправку, которая равна 0 ч.

Смотрите также архив погоды в соседних городах и на ближайших метеорологических станциях:

Погода в Блэкпуле (Великобритания) (30 км)
Погода в Гавардене (Великобритания) (37 км)
Погода в Риле (Великобритания) (40 км)
Погода на Ростерн Мир (Великобритания) (49 км)
Погода на Острове Уолни (Великобритания) (70 км)
Погода в Кейпл Кериг (Великобритания) (72 км)
Погода в Бала (Великобритания) (75 км)
Погода в Шобери (Великобритания) (82 км)
Погода в Лик-Торнклифф (Великобритания) (83 км)
Погода в Бингли (Великобритания) (87 км)

Пояснения к столбцам:

Ветер - указаны скорость ветра в м/с - средняя за 10 мин, порывы в срок и между сроками (в фигурных скобках) и направление, откуда дует ветер: С - северный, СВ - северо-восточный, В - восточный, ЮВ - юго-восточный, Ю - южный, ЮЗ - юго-западный, З - западный, СЗ - северо-западный.
Видимость - горизонтальная дальность видимости в метрах или километрах. При видимости от 1 до 10 км при отсутствии осадков обычно наблюдается дымка, при ухудшении видимости до 1 км и менее - туман. В сухую погоду видимость может ухудшаться дымом, пылью или мглою.
Явления - указаны атмосферные явления, наблюдавшиеся в срок или в последний час перед сроком; фигурными скобками обозначены явления, наблюдавшиеся между сроками (за 1-3 часа до срока); квадратными скобками обозначены град или гололедные отложения с указанием их диаметра в мм.
Облачность - указаны через наклонную черту общая и нижняя облачность в баллах и высота нижней границы облаков в метрах; квадратными скобками обозначены формы облаков: Ci - перистые, Cs - перисто-слоистые, Cc - перисто-кучевые, Ac - высококучевые, As - высокослоистые, Sc - слоисто-кучевые, Ns - слоисто-дождевые, Cu - кучевые, Cb - кучево-дождевые. Подробнее классификацию облаков см. в Атласе облаков (PDF).
T - Температура воздуха - температура, измеренная на высоте 2 м над землей.
Td - Температура точки росы - температура, при понижении до которой содержащийся в воздухе водяной пар достигнет насыщения.
f - Относительная влажность воздуха - влажноcть воздуха, измеренная на высоте 2 м над землей.
Te - Эффективная температура - температура, которую ощущает одетый по сезону человек в тени. Характеристика душности погоды. При расчете учитывается влияние влажности воздуха и скорости ветра на теплоощущения человека.
Tes - Эффективная температура на солнце - температура, которую ощущает человек, с поправкой на солнечный нагрев. Характеристика знойности погоды. Зависит от высоты солнца над горизонтом, облачности и скорости ветра. Ночью, в пасмурную погоду, а также при ветре 12 м/с и более поправка равна нулю.
P - Атмосферное давление - приведенное к уровню моря атмосферное давление.
Po - Атмосферное давление - измеренное на уровне метеостанции атмосферное давление.
Tmin - Минимальная температура - минимум температуры воздуха на высоте 2 м над землей.
Tmax - Максимальная температура - максимум температуры воздуха на высоте 2 м над землей.
R - Количество осадков - Количество выпавших осадков за период времени, мм. При наведении курсора мыши на число - период времени, за который выпало указанное количество осадков.
R24 - Количество осадков - Количество выпавших осадков за 24 часа, мм.
S - Снежный покров - Высота снежного покрова, см. При наведении курсора мыши на число - состояние снежного покрова и степень покрытия местности в баллах.